Regional Weather Roundup
Issued by NWS Spokane, WA

Current Version | Previous Version | Text Only | Print | Product List | Glossary On
Versions: 1 2 3 4 5 6 7 8 9 10 11 12 13 14 15 16 17 18 19 20 21 22 23 24 25 26 27 28 29 30 31 32 33 34 35 36 37 38 39 40 41 42 43 44 45 46 47 48 49 50
376 ASUS46 KOTX 210310 RWROTX Eastern Washington/Northern Idaho Roundup National Weather Service, Spokane WA 800 PM PDT TUE APR 20 2021 Note: "fair" indicated few or no clouds below 12,000 feet with no significant weather and/or obstructions to visibility. ...Northeast Washington and Northern Idaho Panhandle... CITY SKY/WX TMP DP RH WIND PRES REMARKS Spokane Intl PTCLDY 56 16 20 E7 30.11F Spokane Downto CLEAR 52 22 30 N3 30.11F Coeur d Alene CLEAR 49 23 36 NE6 30.12S Deer Park CLEAR 47 26 44 E3 30.11F Sandpoint CLEAR 45 28 53 CALM 30.12S Bonners Ferry FAIR 50 25 37 CALM 30.11F ...Southeast Washington and southern Idaho Panhandle... CITY SKY/WX TMP DP RH WIND PRES REMARKS Walla Walla CLEAR 51 26 37 N9 30.07F Pullman/Moscow CLEAR 52 17 25 N9 30.10S Lewiston CLEAR 60 16 18 W5 30.07S Lowell N/A 46 33 60 CALM 30.08R Grangeville FAIR 45 21 39 N7 30.06S ...Columbia Basin... CITY SKY/WX TMP DP RH WIND PRES REMARKS Ephrata CLEAR 59 21 23 E3 30.10F Moses Lake CLEAR 61 23 23 N5 30.10F Pasco CLEAR 56 34 43 N6 30.09S Richland CLEAR 63 25 23 N3 30.09S Hermiston CLEAR 59 22 24 NE6 30.08F Pendleton CLEAR 54 26 34 NE7 30.09S ...East Slopes Cascades... CITY SKY/WX TMP DP RH WIND PRES REMARKS The Dalles CLEAR 62 28 27 CALM 30.07S Yakima CLEAR 60 21 22 E6 30.10F Ellensburg CLEAR 60 23 24 S5 30.10F Stampede Pass CLEAR 49 23 36 CALM 30.13S Wenatchee CLEAR 59 27 29 E3 30.09F Winthrop FAIR 58 25 28 S7 30.10R Omak CLEAR 57 28 33 SW6 30.09S Sunnyside CLEAR 58 26 29 N5 30.10S ...Southern British Columbia... CITY SKY/WX TMP DP RH WIND PRES REMARKS Penticton PTCLDY 52 25 35 VRB2 30.06F Castlegar PTCLDY 54 25 32 CALM 30.08S Cranbrook PTCLDY 48 19 32 SE6 30.11F Osoyoos N/A 59 32 36 E1 N/A Creston N/A 52 28 40 N1 N/A ...Western Montana... CITY SKY/WX TMP DP RH WIND PRES REMARKS Kalispell CLEAR 44 19 36 SE6 30.15S Libby N/A 45 27 49 S7 30.13S Missoula CLEAR 44 18 35 NE8 30.16S ...Neighboring Cities... CITY SKY/WX TMP DP RH WIND PRES REMARKS Seattle PTCLDY 63 33 32 N8 30.09F Portland MOCLDY 70 29 21 SE6 30.05S Boise CLEAR 53 21 28 NW7 30.00R Great Falls CLEAR 31 21 66 S7 30.24S WCI 24 Calgary PTCLDY 43 18 36 S13 30.09F

USA.gov is the U.S. government's official web portal to all federal, state and local government web resources and services.